Dewpoint
-21 -20 -19 -20 -21 -23 -25 -26 -24 -17 -14 -12 -12 -12 -12 -10 -2 -4 -8 -7 -8 -9 -8 -4 -3 -2 -2 -1 -1 -0 0 -2 -3 -3 -3 -2 -1 -2 -2 -3 -2 -3 -4 -4 -3
-13 -13 -14 -15 -15 -15 -16 -20 -24 -24 -19 -14 -11 -12 -11 -11 -3 -1 -7 -7 -8 -9 -8 -1 -2 -2 -2 -2 -2 0 0 -2 -4 -3 -0 -1 -1 -2 -2 -3 -3 -4 -5 -5 -4
-15 -16 -17 -17 -18 -17 -16 -15 -18 -23 -23 -18 -12 -11 -11 -9 1 -0 -6 -7 -8 -7 -6 -1 -1 -2 -3 -2 -1 1 -1 -2 -2 -1 -1 -1 -1 -1 -2 -2 -4 -4 -5 -5 -5
-16 -18 -21 -21 -21 -17 -14 -13 -15 -19 -22 -20 -13 -10 -11 -7 2 0 -6 -7 -8 -6 -7 -2 -3 -1 -2 -1 -1 1 -2 -2 -2 -2 -2 -1 -2 -2 -2 -2 -4 -4 -4 -4 -4
-17 -19 -23 -24 -23 -21 -18 -13 -15 -18 -20 -19 -13 -9 -9 -1 1 -2 -5 -8 -7 -6 -4 -2 -1 2 -1 -1 -1 -1 -1 -1 -1 -1 -2 -3 -2 -2 -3 -4 -4 -5 -5 -4 -4
-18 -20 -26 -26 -24 -25 -18 -12 -15 -18 -19 -15 -10 -9 -6 -0 -0 -3 -5 -5 -7 -6 -1 -4 2 3 2 0 -0 -0 -0 -0 -1 -1 -3 -2 -2 -2 -4 -4 -5 -5 -5 -4 -4
-18 -22 -27 -26 -26 -27 -14 -13 -17 -17 -15 -12 -8 -8 -2 0 -4 -2 -6 -5 -6 -5 -5 -4 -2 3 2 1 -0 -1 -0 -1 -0 -2 -2 -2 -2 -1 -4 -4 -4 -4 -4 -4 -5
-19 -25 -27 -27 -29 -24 -10 -15 -15 -13 -10 -9 -7 -1 -1 -5 -3 -3 -6 -3 -3 -4 -4 -5 -1 3 2 -0 0 -1 -1 -1 -3 -2 -2 -2 -1 -3 -4 -4 -4 -4 -4 -4 -4
-20 -26 -28 -30 -31 -17 -12 -17 -9 -9 -9 -5 -4 3 1 -1 -1 -6 -5 -4 -4 -3 1 -0 1 2 -0 1 0 -2 -3 -3 -2 -2 -3 -2 -1 -3 -4 -3 -3 -4 -4 -4 -4
-23 -27 -30 -32 -29 -12 -12 -13 -5 -8 -5 1 -2 1 -1 -0 -4 -4 -4 -3 -2 0 1 0 0 1 -1 -1 1 -0 0 -1 -0 -3 -2 -1 -1 -2 -3 -3 -4 -4 -4 -4 -3
-26 -29 -32 -32 -20 -9 -11 -15 -11 -5 -7 -2 -4 -2 -1 -3 -1 -1 -3 1 0 1 -0 -0 3 0 -1 -1 -0 -0 0 1 -1 -3 -1 -1 -1 -1 -2 -3 -4 -4 -4 -4 -3
-28 -30 -33 -32 -11 -11 -8 -11 -4 -4 -2 -1 -0 1 -2 -1 1 1 -3 -1 0 0 -1 -0 2 -0 -1 -1 0 0 1 -0 -3 -2 -0 0 0 -2 -2 -3 -4 -4 -4 -3 -3
-29 -31 -34 -32 -7 -5 -3 -3 -2 2 3 1 -2 1 -1 0 0 0 -3 0 0 1 1 0 -0 -2 -1 -1 -0 -1 0 1 1 0 0 -1 -1 -3 -4 -4 -4 -5 -4 -4 -3
-30 -33 -34 -31 -7 -4 -4 -3 -1 3 3 -1 1 1 1 0 2 1 -2 -1 1 0 1 1 -1 -1 -0 1 -1 -1 1 1 2 2 3 -1 2 -2 -3 -3 -4 -4 -4 -4 -4
-31 -33 -30 -26 -18 -3 -2 -3 0 4 -5 -5 -0 -4 -1 0 -2 2 -1 2 2 2 -1 -3 -0 1 0 0 -1 -4 0 1 2 3 2 1 1 -1 -5 -5 -6 -6 -5 -5 -5
-33 -34 -26 -20 -9 -4 -6 -3 4 1 -6 -2 -2 -2 -1 1 -0 -0 2 2 1 2 1 1 1 -0 -0 -0 -1 0 2 2 2 2 3 2 -0 -1 -4 -6 -6 -6 -6 -6 -5
-35 -33 -15 -14 -13 -18 -9 2 1 -0 -5 -2 -3 -3 -3 -4 -2 -1 -1 -1 -0 -2 -1 -0 1 0 -1 1 1 0 1 -0 -1 4 5 -1 2 -0 -4 -6 -6 -5 -6 -4 -2
-36 -27 -8 -6 -10 -10 -1 -1 -5 -2 -2 -3 -3 -3 -3 -6 -4 -4 -4 -2 -1 -1 -1 1 -2 -0 0 -0 -1 0 1 -2 -4 1 2 0 2 -1 -5 -6 -6 -6 -5 -2 1
-34 -19 -4 -3 -6 -6 1 1 -0 -4 -2 -2 -3 -5 -5 -3 -5 -7 -7 -4 -1 -1 -0 0 0 -2 -2 -1 -2 1 3 -1 1 1 3 2 0 -3 -6 -5 -5 -6 -3 1 2
-31 -9 2 -5 -4 -1 -0 -2 -4 -5 -2 -3 -5 -7 -6 -6 -6 -6 -8 -4 -0 -0 -1 -1 1 -2 0 -1 -0 1 1 2 2 2 4 1 0 1 -4 -4 -5 -5 -1 1 1
-24 -5 1 -5 -4 1 1 -2 -3 -3 -2 -1 -2 -3 -4 -3 -5 -5 -8 -3 -3 -2 -2 -1 -1 -2 -2 -0 2 3 2 2 -0 0 2 2 1 -3 -5 -5 -5 -6 0 1 1
-9 -2 -2 -8 0 -1 -0 -1 -1 -1 -2 -1 -2 -2 -2 -2 -2 -4 -5 -2 -3 -3 -1 -3 -1 1 -1 -4 -5 -3 -2 -1 -0 -1 -0 0 0 -5 -6 -6 -6 -2 1 2 3
-5 -4 -2 -3 0 -0 -1 -2 -1 -2 -1 -1 -1 -1 -2 -1 0 -2 -3 -3 -3 -3 -1 -2 -1 1 -2 -1 -2 -1 -3 -3 -2 -2 0 0 -1 -5 -5 -6 -6 -1 1 2 3
-6 -4 -1 -1 -2 -2 -1 -2 -2 -2 -1 -1 -1 -2 -1 -1 -3 -2 -3 -2 -3 -3 -2 -3 -1 -1 -1 -4 -2 -1 -2 -2 -2 1 0 -0 -2 -4 -5 -6 -6 -7 0 2 3
-4 -1 -1 -3 -1 -2 -3 -2 -1 -2 -2 -3 -1 -0 -1 0 -1 -0 -0 -1 -1 -2 -2 -1 1 -0 -1 -1 -1 -1 -1 -1 -0 -1 1 -1 -2 -4 -5 -6 -7 -7 1 3 3
-1 -2 -1 -3 -4 -4 -3 -3 -2 -1 -1 -1 0 -2 -3 -1 -1 -1 -1 -1 0 -2 -2 -2 1 0 1 -1 -2 -2 -2 -2 -2 -2 -2 -2 -1 -5 -6 -7 -7 -7 1 2 3
-7 -9 -10 -6 -7 -4 -3 -1 -1 -3 -1 -1 -1 -3 -3 -5 -7 -7 -7 -6 -4 -3 -2 -2 -1 -0 0 -2 -3 -3 -5 -5 -4 -4 -3 -1 -4 -6 -6 -7 -6 -6 0 2 3
Wind_Speed
19 20 20 21 22 22 22 21 20 19 20 19 15 13 11 7 5 8 10 15 17 16 13 12 7 4 8 9 6 3 4 3 4 5 5 14 9 10 11 6 8 7 10 11 8
20 22 23 23 23 23 22 22 21 20 18 18 14 12 10 7 2 6 11 14 15 15 13 15 14 11 6 5 4 4 4 2 3 2 3 8 8 10 5 10 11 12 10 9 9
22 24 26 26 26 25 23 22 21 20 18 17 13 10 9 6 4 5 11 13 14 12 11 9 8 5 6 5 7 6 2 2 4 7 6 7 9 6 6 5 6 14 15 15 17
23 26 28 29 29 27 25 21 20 19 17 15 12 8 7 5 3 6 10 13 13 11 11 8 7 3 4 3 4 3 3 4 3 6 5 5 10 9 12 10 12 13 11 11 15
24 26 29 30 29 28 25 22 20 19 16 13 10 5 4 3 3 7 10 13 12 12 14 10 13 8 3 3 5 2 4 6 5 7 9 9 8 6 20 14 8 4 9 12 13
27 29 31 31 30 27 24 22 20 18 14 10 6 6 3 4 3 6 9 12 11 12 11 12 6 3 5 2 1 4 7 11 6 6 5 4 5 3 4 6 7 9 12 14 13
28 30 31 31 30 25 23 21 19 14 10 7 6 5 7 5 3 5 9 11 10 10 10 8 5 3 2 3 4 5 5 5 6 5 3 8 2 5 4 9 18 7 9 9 8
30 31 31 30 28 24 20 20 15 10 7 6 6 5 5 5 3 6 10 7 11 9 10 7 5 2 3 5 2 1 0 5 2 4 2 6 7 8 9 22 22 6 10 9 5
29 31 31 29 25 22 19 16 9 12 8 7 7 5 4 4 5 10 9 10 7 9 9 10 6 5 6 4 4 5 2 3 8 5 2 1 9 7 19 19 21 5 9 5 7
30 30 30 27 23 21 19 9 5 9 8 7 9 4 4 3 8 7 10 10 7 7 4 6 4 3 4 7 1 4 4 5 5 3 2 8 14 8 17 21 12 3 0 4 4
29 30 29 25 20 19 20 5 5 3 12 6 4 2 3 7 4 9 11 6 8 4 3 2 6 2 1 2 1 4 5 7 6 3 6 4 14 17 16 14 7 5 2 2 0
29 30 28 22 15 18 18 13 10 5 3 6 7 5 4 4 2 7 10 6 5 3 5 6 2 3 1 1 3 3 6 8 6 6 8 7 16 11 5 6 10 7 8 5 4
28 28 26 19 10 15 17 18 13 5 1 3 3 2 2 3 2 4 8 3 3 5 4 2 2 1 1 3 4 2 2 3 5 9 5 7 7 4 1 7 11 11 7 6 6
27 28 25 18 7 10 11 16 11 3 4 4 2 3 3 3 1 6 5 4 0 2 4 3 3 1 2 2 3 3 1 2 5 5 3 5 4 5 3 6 5 11 6 4 10
26 26 22 17 10 6 10 15 6 2 4 4 2 4 4 0 3 1 5 1 1 2 5 5 1 1 2 1 1 7 5 5 3 1 4 3 3 7 2 2 1 1 4 13 15
24 25 19 13 9 7 11 9 2 4 2 1 1 3 3 1 1 2 2 2 2 1 3 5 2 3 2 2 2 6 5 3 1 3 1 3 4 5 2 3 2 4 13 16 16
23 22 16 12 10 9 8 3 4 5 3 2 2 4 4 3 2 2 2 3 1 6 4 5 2 2 1 2 5 5 5 4 5 3 4 2 2 8 6 2 5 4 11 14 19
21 19 12 12 11 8 5 4 5 3 3 3 3 6 3 2 1 2 2 2 3 2 1 2 6 3 2 1 5 2 3 4 4 2 5 5 5 5 2 8 6 9 10 16 18
20 14 11 13 9 7 4 4 2 2 3 6 7 2 1 1 2 2 2 2 2 3 1 4 4 1 1 1 3 2 2 3 1 2 1 4 6 4 3 6 9 8 11 12 13
17 9 6 10 7 5 5 1 2 3 4 3 1 3 3 3 3 4 3 3 2 2 4 3 4 3 2 1 1 3 2 2 2 1 4 5 6 5 2 5 6 7 8 10 12
12 5 6 9 5 4 3 1 2 3 4 3 4 4 3 4 4 2 3 4 4 2 3 2 3 6 1 5 6 1 3 4 2 4 3 2 6 5 3 4 5 6 6 8 11
5 3 9 7 3 2 1 1 2 3 4 3 2 2 3 5 4 3 3 2 3 2 2 3 2 4 8 4 2 3 3 3 3 5 2 3 8 6 6 6 4 2 4 6 11
4 4 7 6 3 3 2 2 0 2 4 5 4 7 5 4 5 4 3 4 3 3 2 4 3 4 8 2 2 1 3 4 2 1 6 3 6 2 6 14 12 6 5 7 10
3 3 2 3 3 2 4 3 1 2 2 2 3 4 4 3 3 6 4 5 3 1 3 2 3 6 8 5 2 5 5 3 2 3 5 16 22 24 16 12 14 14 7 8 8
2 1 1 2 2 3 4 3 3 2 1 3 2 5 3 3 4 3 4 6 8 12 4 4 5 5 10 9 5 9 13 12 13 17 11 25 18 22 17 12 16 15 6 6 8
2 2 0 3 3 0 2 2 1 3 3 2 3 1 2 3 2 6 5 3 6 6 3 3 5 3 5 10 14 17 16 18 16 18 19 20 26 20 26 13 11 14 7 7 6
4 4 2 2 2 1 2 1 2 2 1 1 2 3 4 5 8 16 17 18 17 5 2 5 3 6 7 4 7 8 2 6 6 5 6 6 6 6 6 8 10 12 9 10 7
Wind_Direction
16 14 11 6 3 359 357 354 352 354 354 355 353 352 359 16 39 19 18 14 6 3 6 26 68 32 62 34 36 0 60 27 8 27 317 9 24 2 339 316 313 283 288 308 331
13 7 3 0 356 352 349 349 346 347 351 352 353 348 355 11 39 27 14 9 7 3 11 26 28 44 43 31 25 64 83 47 330 74 7 354 355 315 329 316 294 296 328 325 317
8 -0 356 355 353 350 348 346 340 339 345 347 347 353 354 6 92 5 357 359 5 6 16 23 6 350 43 44 12 356 107 341 26 20 10 320 307 305 303 279 255 299 318 317 308
3 356 352 351 348 348 351 348 338 334 341 342 344 360 359 23 102 340 345 354 3 7 16 30 25 62 74 41 8 55 52 44 324 335 314 285 299 309 268 256 288 291 301 300 295
357 353 349 348 346 345 347 345 337 334 339 341 346 16 11 62 35 346 347 353 4 6 16 27 34 9 71 345 352 22 335 321 295 309 293 295 272 270 288 290 285 269 293 308 306
352 350 348 346 345 345 346 342 337 338 342 345 2 358 101 91 2 347 350 357 5 14 11 21 15 24 316 320 44 302 292 284 286 254 285 321 273 292 281 318 304 301 301 302 299
349 347 347 345 345 347 347 341 341 346 354 359 18 79 88 86 355 358 352 359 7 13 8 4 6 9 335 323 334 296 326 315 235 238 258 326 45 198 303 352 341 329 318 314 314
346 346 346 344 346 350 350 341 351 12 28 34 72 86 76 50 24 352 354 354 349 7 13 15 11 336 284 306 302 268 98 357 305 194 236 67 274 252 323 329 323 290 301 316 22
344 346 345 344 348 353 353 346 11 55 55 63 71 75 65 45 6 346 356 351 353 12 33 33 20 347 334 342 14 5 301 350 334 232 321 120 279 258 298 310 308 259 312 58 19
344 347 347 345 349 354 358 2 63 52 67 84 58 71 34 345 340 349 360 2 2 6 49 24 25 54 24 30 292 322 339 327 272 312 317 275 271 288 295 302 280 244 96 16 22
344 348 349 347 351 357 7 17 24 33 39 46 356 320 262 338 18 10 3 4 4 2 31 15 66 111 80 75 328 303 281 273 274 225 354 278 281 285 279 291 209 201 261 248 239
345 348 351 349 358 356 13 53 37 349 346 39 58 45 28 25 33 348 360 13 22 355 356 12 131 197 305 276 230 276 294 301 295 359 338 304 294 288 236 234 205 214 237 225 275
344 348 351 351 1 1 14 24 12 355 29 354 9 68 358 12 3 330 360 15 29 5 12 223 258 277 291 331 345 292 242 325 280 323 288 330 304 1 227 177 206 233 242 246 295
344 346 349 358 6 2 21 1 357 34 77 320 353 346 349 351 316 342 15 37 310 349 342 247 224 310 321 282 107 310 133 300 306 27 299 66 283 308 217 225 235 240 230 282 322
342 346 351 355 352 13 343 341 345 341 64 283 308 319 325 25 319 345 1 27 123 266 84 256 216 332 310 243 91 247 346 285 226 196 5 313 71 272 215 196 65 165 339 335 334
342 345 352 352 347 348 335 325 335 47 286 306 302 290 322 226 233 305 346 344 300 317 206 243 137 164 236 306 235 299 312 328 102 106 14 234 132 278 226 219 275 14 11 3 352
342 344 353 357 352 338 328 323 34 96 251 14 345 343 335 293 187 220 309 316 349 23 353 328 182 149 160 348 356 5 32 344 1 356 241 186 37 250 246 329 80 40 1 354 350
343 342 2 11 358 347 344 50 75 276 27 1 340 312 236 17 328 267 292 339 3 48 13 66 333 173 176 168 197 300 122 147 241 247 281 340 241 258 126 100 57 21 359 344 350
344 342 19 4 354 350 14 46 211 32 352 346 322 302 0 15 291 338 236 127 91 64 109 14 287 57 101 73 114 305 161 174 116 281 96 259 283 303 17 16 8 8 349 339 347
344 351 25 360 357 3 63 28 69 26 344 331 306 36 327 306 4 28 287 334 85 69 84 303 310 257 180 86 268 211 274 55 23 322 282 293 284 235 307 301 355 332 315 331 344
342 1 9 357 346 40 108 135 16 11 350 353 344 338 338 343 329 297 300 12 25 13 24 274 165 287 115 202 186 159 278 229 196 153 203 300 266 220 227 67 297 281 304 341 350
349 6 345 337 16 60 85 41 340 356 328 312 317 271 310 337 309 284 265 60 41 343 334 315 225 262 240 285 257 160 222 194 134 274 220 161 266 236 197 128 231 291 331 346 335
356 327 7 4 87 345 301 233 172 11 3 358 348 27 23 329 327 313 348 189 132 87 100 336 286 319 323 354 355 74 198 216 222 135 212 154 258 50 282 326 22 332 320 318 332
21 11 337 35 59 73 15 338 19 221 244 246 288 20 359 306 246 283 322 11 330 256 198 139 250 212 242 251 327 289 272 292 191 233 253 241 271 272 287 302 308 313 285 300 326
73 110 344 313 11 26 1 292 313 309 329 292 102 76 25 265 310 287 15 343 320 311 234 175 247 250 274 298 297 288 280 270 246 251 244 266 271 276 289 288 285 304 253 275 321
163 114 159 294 278 25 214 254 210 352 13 347 102 6 52 247 273 298 4 305 244 322 281 232 259 352 288 290 286 281 280 270 266 262 257 259 271 282 279 281 305 319 270 283 312
177 159 166 236 290 103 221 75 103 35 355 351 19 348 298 285 308 288 273 254 258 271 299 312 334 328 292 310 306 283 263 272 228 243 234 228 271 333 332 314 321 331 319 309 304
Height
1547 1546 1543 1540 1537 1534 1531 1528 1525 1523 1520 1518 1515 1513 1511 1510 1509 1508 1507 1508 1505 1502 1500 1497 1496 1495 1494 1494 1494 1495 1503 1509 1506 1503 1504 1500 1500 1500 1500 1499 1498 1497 1497 1498 1498
1548 1545 1543 1540 1537 1534 1530 1527 1524 1522 1519 1517 1514 1512 1511 1510 1510 1509 1510 1508 1506 1503 1500 1497 1496 1495 1495 1496 1496 1496 1507 1505 1502 1502 1504 1503 1503 1502 1501 1499 1498 1495 1495 1495 1495
1549 1546 1542 1539 1536 1533 1529 1526 1522 1520 1518 1516 1513 1512 1512 1510 1511 1511 1510 1509 1506 1504 1501 1499 1498 1497 1497 1497 1498 1499 1505 1503 1502 1502 1502 1501 1501 1501 1500 1499 1496 1496 1494 1493 1491
1549 1546 1541 1538 1534 1530 1527 1524 1521 1518 1516 1513 1512 1512 1510 1510 1515 1513 1511 1509 1507 1505 1502 1500 1498 1497 1499 1500 1500 1502 1501 1502 1502 1502 1501 1500 1498 1497 1496 1495 1494 1493 1493 1492 1490
1548 1545 1541 1537 1532 1528 1524 1522 1518 1515 1513 1512 1511 1511 1511 1511 1514 1513 1512 1510 1508 1506 1503 1502 1501 1501 1502 1502 1501 1501 1501 1501 1501 1500 1499 1497 1497 1497 1492 1490 1490 1490 1490 1489 1488
1548 1544 1540 1535 1531 1527 1522 1519 1516 1513 1512 1510 1510 1509 1510 1511 1513 1513 1512 1510 1508 1506 1505 1505 1505 1504 1505 1503 1503 1502 1501 1500 1498 1498 1497 1495 1493 1494 1489 1489 1489 1489 1488 1487 1486
1547 1542 1538 1534 1529 1525 1521 1516 1514 1512 1510 1510 1510 1509 1510 1515 1513 1513 1510 1508 1507 1506 1505 1504 1505 1506 1504 1504 1503 1502 1503 1499 1497 1497 1496 1495 1491 1491 1488 1488 1487 1486 1485 1484 1483
1546 1542 1537 1532 1527 1524 1519 1515 1512 1511 1509 1509 1509 1509 1511 1513 1513 1513 1511 1509 1508 1507 1505 1507 1506 1506 1505 1503 1501 1503 1503 1509 1497 1496 1496 1497 1499 1487 1486 1485 1483 1483 1482 1482 1482
1545 1541 1537 1531 1526 1522 1518 1514 1512 1511 1509 1510 1511 1511 1514 1514 1514 1513 1511 1510 1508 1507 1507 1507 1508 1510 1508 1508 1510 1508 1512 1506 1505 1498 1496 1497 1495 1486 1484 1483 1481 1481 1481 1481 1480
1544 1541 1536 1530 1525 1522 1518 1514 1512 1511 1511 1511 1512 1516 1516 1516 1514 1513 1512 1510 1509 1508 1508 1507 1507 1509 1513 1520 1538 1521 1519 1513 1509 1500 1498 1498 1491 1483 1482 1481 1478 1478 1480 1479 1479
1543 1539 1535 1530 1525 1522 1518 1514 1516 1515 1513 1515 1517 1516 1516 1516 1515 1514 1512 1511 1510 1511 1511 1508 1514 1522 1515 1513 1516 1518 1518 1517 1507 1500 1498 1494 1489 1479 1477 1477 1476 1477 1477 1477 1477
1542 1538 1535 1530 1526 1522 1521 1517 1521 1523 1519 1518 1516 1515 1515 1515 1515 1514 1514 1514 1511 1514 1511 1515 1517 1512 1510 1508 1510 1513 1518 1517 1505 1499 1502 1494 1484 1474 1471 1472 1473 1474 1475 1475 1474
1541 1537 1533 1529 1526 1524 1522 1523 1523 1521 1522 1520 1518 1515 1516 1517 1515 1514 1514 1514 1515 1515 1516 1518 1514 1512 1510 1512 1512 1511 1510 1513 1515 1505 1497 1495 1487 1474 1469 1469 1470 1471 1473 1473 1471
1540 1536 1532 1529 1528 1526 1525 1525 1524 1523 1526 1523 1520 1519 1517 1516 1516 1515 1514 1515 1514 1516 1516 1516 1512 1512 1512 1511 1510 1517 1511 1511 1510 1516 1523 1501 1513 1485 1472 1471 1471 1471 1472 1471 1469
1539 1535 1531 1527 1527 1526 1529 1526 1524 1526 1549 1522 1520 1519 1517 1517 1517 1515 1515 1513 1514 1514 1517 1514 1511 1513 1515 1511 1512 1512 1507 1510 1508 1510 1516 1504 1518 1487 1476 1473 1471 1470 1470 1469 1467
1539 1535 1531 1529 1527 1527 1526 1525 1525 1532 1550 1521 1519 1519 1518 1516 1516 1514 1515 1515 1514 1514 1514 1512 1511 1512 1511 1511 1511 1509 1507 1505 1507 1513 1528 1500 1509 1491 1478 1471 1468 1468 1468 1468 1466
1538 1534 1531 1529 1528 1526 1525 1526 1534 1542 1521 1525 1521 1520 1520 1517 1516 1515 1514 1516 1519 1527 1521 1513 1512 1512 1512 1512 1512 1513 1517 1537 1534 1527 1508 1494 1508 1486 1471 1470 1469 1470 1469 1467 1464
1537 1534 1532 1531 1528 1526 1526 1528 1539 1528 1527 1523 1521 1520 1522 1517 1516 1514 1514 1519 1515 1517 1538 1531 1528 1512 1512 1513 1520 1512 1516 1548 1535 1544 1524 1504 1502 1480 1468 1469 1469 1468 1466 1464 1462
1536 1533 1531 1531 1529 1527 1528 1542 1539 1532 1531 1530 1524 1523 1521 1518 1519 1515 1513 1515 1516 1515 1524 1533 1519 1511 1509 1510 1514 1512 1514 1512 1527 1521 1527 1507 1486 1472 1469 1467 1466 1466 1465 1463 1460
1535 1533 1532 1531 1530 1529 1531 1534 1534 1533 1532 1529 1528 1524 1525 1522 1519 1519 1515 1514 1517 1516 1517 1521 1527 1509 1510 1510 1511 1513 1513 1521 1526 1537 1519 1511 1494 1484 1470 1469 1466 1465 1464 1461 1458
1535 1533 1533 1532 1531 1530 1539 1535 1533 1534 1535 1534 1532 1530 1529 1528 1523 1520 1516 1519 1517 1518 1517 1517 1520 1516 1508 1510 1509 1514 1516 1511 1512 1521 1529 1534 1493 1471 1465 1465 1466 1463 1462 1458 1455
1535 1536 1534 1533 1534 1533 1537 1535 1535 1533 1534 1534 1533 1532 1534 1533 1530 1525 1521 1518 1517 1517 1519 1518 1520 1523 1512 1504 1503 1503 1506 1510 1530 1520 1527 1528 1487 1463 1462 1461 1461 1460 1459 1456 1454
1536 1537 1537 1535 1539 1539 1535 1535 1535 1534 1534 1535 1535 1535 1534 1535 1537 1528 1524 1523 1520 1519 1521 1521 1523 1531 1511 1507 1503 1503 1502 1502 1506 1512 1515 1528 1483 1461 1464 1458 1459 1459 1457 1455 1452
1537 1539 1538 1537 1537 1538 1539 1537 1536 1535 1534 1532 1532 1533 1536 1536 1534 1530 1526 1525 1523 1522 1519 1519 1521 1520 1514 1503 1506 1508 1504 1501 1504 1518 1503 1490 1472 1457 1466 1465 1461 1457 1454 1453 1450
1538 1538 1540 1542 1538 1538 1539 1539 1536 1535 1536 1533 1530 1532 1534 1536 1532 1530 1528 1528 1523 1523 1520 1518 1521 1519 1515 1511 1508 1506 1502 1501 1500 1493 1500 1475 1477 1461 1463 1462 1458 1454 1451 1450 1448
1539 1537 1539 1540 1539 1536 1536 1537 1537 1539 1539 1534 1533 1531 1532 1534 1534 1535 1535 1533 1528 1521 1519 1515 1516 1515 1517 1509 1507 1499 1493 1489 1488 1482 1480 1476 1467 1461 1455 1456 1454 1451 1449 1448 1445
1535 1535 1534 1536 1540 1539 1537 1536 1539 1540 1540 1540 1536 1534 1533 1529 1527 1526 1525 1525 1525 1525 1523 1525 1519 1516 1510 1510 1508 1498 1482 1480 1476 1474 1473 1476 1467 1456 1456 1455 1452 1450 1449 1447 1445